Location: Hurstbourne Priors
(51.2000°N, 1.3667°W)
Time: 20:32:14
(UTC+00:00)

Transit 4A - Pass Details

Date: 20 April 2021
Orbit: 870 x 974 km, 66.8° (Epoch: 09 May)

Event Time Altitude Azimuth Distance (km) Brightness Sun altitude
Rises 09:51:40 0° 311° (NW) 3,508 10.5 42.2°
Reaches altitude 10° 09:55:22 10° 288° (WNW) 2,546 9.9 42.6°
Maximum altitude 09:58:20 14° 257° (WSW) 2,232 9.8 42.9°
Drops below altitude 10° 10:01:18 10° 227° (SW) 2,519 10.3 43.2°
Sets 10:04:57 0° 203° (SSW) 3,446 11.1 43.6°
